No particular awareness of the weather is required.    There are no Weather-warnings


Meteo18 Weather Cam more information Meteo18 Weather Cam


Thunder radar more information blitzortung!


Rain radar more information rain snow radar


Visit our other weather sites:

Template documentation
and downloads

And another site



Weather Underground History page Text

Daily Summary for September 13, 2017 Units:  Metric    English   Both
« Previous Day
Next Day »
Daily Weekly Monthly Yearly Custom
  High: Low: Average:
Temperature: -17.8 °C -10.9 °C -8.2 °C
Dew Point: -17.8 °C -12.7 °C -9.8 °C
Humidity: Humidity % 66 % 83 %
Wind Speed: 0 km/h 5.1 km/h 30.4 km/h
Wind Gust: 0 km/h - -
Wind:- - SW
Pressure: 0 hPa 34246 hPa -
Precipitation: 96.52 mm    
Historical Graphs
 
 
Tabular Data for September 13, 2017
Time Temperature Dew Point Pressure Wind Wind Speed Wind Gust Humidity Rainfall Rate (Hourly)
-17.8 °C -17.8 °C 0 hPa Calm     Humidity % 0 mm
00:02 -10.8 °C -12.7 °C 34418.7 hPa SW 15.6 km/h 20.8 km/h 80 % 0 mm
00:07 -10.9 °C -12.7 °C 34428.8 hPa SW 10.3 km/h 23.3 km/h 81 % 0 mm
00:12 -10.9 °C -12.6 °C 34428.8 hPa SSW 5.1 km/h 23.3 km/h 82 % 0 mm
00:17 -10.8 °C -12.5 °C 34418.7 hPa SSW 15.6 km/h 23.3 km/h 82 % 0 mm
00:22 -10.8 °C -12.4 °C 34418.7 hPa SSW 15.6 km/h 20.8 km/h 82 % 0 mm
00:27 -10.8 °C -12.4 °C 34418.7 hPa SW 18.2 km/h 20.8 km/h 82 % 0 mm
00:32 -10.8 °C -12.4 °C 34418.7 hPa WSW 10.3 km/h 20.8 km/h 82 % 0 mm
00:37 -10.7 °C -12.4 °C 34418.7 hPa SW 7.7 km/h 20.8 km/h 82 % 0 mm
00:42 -10.7 °C -12.4 °C 34418.7 hPa SSE 15.6 km/h 23.3 km/h 82 % 0 mm
00:52 -10.7 °C -12.4 °C 34418.7 hPa SW 10.3 km/h 28.5 km/h 82 % 0 mm
00:57 -10.7 °C -12.3 °C 34418.7 hPa SW 18.2 km/h 31.1 km/h 82 % 0 mm
01:02 -10.6 °C -12.3 °C 34405.1 hPa SW 23.3 km/h 31.1 km/h 82 % 0 mm
01:07 -10.6 °C -12.3 °C 34405.1 hPa SW 12.9 km/h 33.6 km/h 82 % 0 mm
01:12 -10.6 °C -12.2 °C 34405.1 hPa South 15.6 km/h 33.6 km/h 82 % 0 mm
01:17 -10.5 °C -12.3 °C 34405.1 hPa SW 10.3 km/h 36.2 km/h 81 % 0 mm
01:22 -10.5 °C -12.3 °C 34405.1 hPa SW 18.2 km/h 36.2 km/h 81 % 0 mm
01:27 -10.4 °C -12.2 °C 34405.1 hPa SW 12.9 km/h 38.8 km/h 81 % 0 mm
01:32 -10.4 °C -12.2 °C 34395 hPa WSW 18.2 km/h 38.8 km/h 81 % 0 mm
01:37 -10.4 °C -12.2 °C 34395 hPa SSW 15.6 km/h 38.8 km/h 81 % 0 mm
01:42 -10.3 °C -12.2 °C 34395 hPa SSW 12.9 km/h 33.6 km/h 80 % 0 mm
01:47 -10.3 °C -12.2 °C 34395 hPa SW 23.3 km/h 36.2 km/h 80 % 0 mm
01:52 -10.2 °C -12.1 °C 34395 hPa South 20.8 km/h 44.1 km/h 80 % 0 mm
01:57 -10.2 °C -12.2 °C 34395 hPa SSW 23.3 km/h 44.1 km/h 79 % 0 mm
02:02 -10.2 °C -12.2 °C 34395 hPa SSE 18.2 km/h 44.1 km/h 79 % 0 mm
02:07 -10.1 °C -12.1 °C 34384.8 hPa SW 28.5 km/h 44.1 km/h 79 % 0 mm
02:12 -10.1 °C -12.1 °C 34384.8 hPa SSW 31.1 km/h 44.1 km/h 79 % 0 mm
02:22 -10.1 °C -12.1 °C 34384.8 hPa SW 33.6 km/h 46.7 km/h 79 % 0 mm
02:32 -10.1 °C -12.1 °C 34371.3 hPa SSW 33.6 km/h 51.8 km/h 79 % 0 mm
02:37 -9.9 °C -12.1 °C 34371.3 hPa SW 31.1 km/h 51.8 km/h 78 % 0 mm
02:42 -9.9 °C -12.1 °C 34371.3 hPa SW 31.1 km/h 57 km/h 78 % 0 mm
02:52 -10 °C -12 °C 34371.3 hPa SSW 41.4 km/h 57 km/h 79 % 0 mm
03:02 -10.1 °C -12.1 °C 34361.1 hPa WSW 31.1 km/h 46.7 km/h 79 % 0 mm
03:12 -10.2 °C -11.9 °C 34361.1 hPa SSW 23.3 km/h 49.2 km/h 81 % 0 mm
03:17 -10.2 °C -11.9 °C 34361.1 hPa SW 23.3 km/h 49.2 km/h 82 % 0 mm
03:22 -10.2 °C -11.9 °C 34361.1 hPa South 20.8 km/h 49.2 km/h 82 % 0 mm
03:32 -10.2 °C -11.8 °C 34347.6 hPa SW 18.2 km/h 44.1 km/h 83 % 0 mm
03:42 -10.2 °C -11.7 °C 34347.6 hPa SSW 23.3 km/h 44.1 km/h 84 % 0 mm
03:47 -10.2 °C -11.7 °C 34347.6 hPa SW 25.9 km/h 44.1 km/h 84 % 0 mm
03:52 -10.1 °C -11.6 °C 34337.4 hPa SW 25.9 km/h 44.1 km/h 83 % 0 mm
03:57 -9.9 °C -11.6 °C 34327.3 hPa SSW 28.5 km/h 49.2 km/h 82 % 0 mm
04:02 -9.9 °C -11.5 °C 34327.3 hPa WSW 23.3 km/h 49.2 km/h 83 % 0 mm
04:07 -9.9 °C -11.4 °C 34327.3 hPa SW 36.2 km/h 49.2 km/h 84 % 0 mm
04:12 -9.9 °C -11.3 °C 34337.4 hPa SW 31.1 km/h 49.2 km/h 85 % 0 mm
04:17 -9.9 °C -11.2 °C 34337.4 hPa SSW 31.1 km/h 57 km/h 86 % 0 mm
04:22 -9.9 °C -11.1 °C 34337.4 hPa SW 23.3 km/h 57 km/h 87 % 0 mm
04:27 -10.1 °C -11.2 °C 34327.3 hPa SSW 44.1 km/h 57 km/h 88 % 0 mm
04:32 -10.2 °C -11.1 °C 34327.3 hPa WSW 25.9 km/h 64.7 km/h 90 % 0 mm
04:37 -10.2 °C -11 °C 34327.3 hPa SSW 15.6 km/h 64.7 km/h 91 % 0 mm
04:42 -10.3 °C -11 °C 34327.3 hPa SW 38.8 km/h 64.7 km/h 92 % 7.62 mm
04:47 -10.3 °C -11.1 °C 34327.3 hPa SW 25.9 km/h 46.7 km/h 92 % 7.62 mm
04:52 -10.3 °C -10.9 °C 34313.7 hPa SSW 23.3 km/h 46.7 km/h 93 % 7.62 mm
04:57 -10.3 °C -10.9 °C 34313.7 hPa SSW 18.2 km/h 46.7 km/h 93 % 7.62 mm
05:02 -10.3 °C -10.9 °C 34313.7 hPa SW 33.6 km/h 46.7 km/h 93 % 7.62 mm
05:12 -10.3 °C -10.9 °C 34313.7 hPa SSW 15.6 km/h 46.7 km/h 93 % 7.62 mm
05:22 -10.3 °C -10.9 °C 34313.7 hPa SSW 23.3 km/h 46.7 km/h 93 % 12.7 mm
05:27 -10.2 °C -10.8 °C 34313.7 hPa SW 23.3 km/h 46.7 km/h 93 % 12.7 mm
05:32 -10.2 °C -10.8 °C 34313.7 hPa WSW 20.8 km/h 46.7 km/h 93 % 12.7 mm
05:37 -10.2 °C -10.8 °C 34313.7 hPa SSW 25.9 km/h 41.4 km/h 93 % 20.32 mm
05:42 -10.2 °C -10.9 °C 34303.6 hPa SW 25.9 km/h 41.4 km/h 92 % 20.32 mm
05:47 -10.1 °C -10.8 °C 34303.6 hPa SW 20.8 km/h 49.2 km/h 92 % 12.7 mm
05:52 -10.1 °C -10.8 °C 34303.6 hPa SW 18.2 km/h 49.2 km/h 92 % 12.7 mm
05:57 -10 °C -10.8 °C 34303.6 hPa SW 33.6 km/h 49.2 km/h 91 % 12.7 mm
06:02 -9.9 °C -10.7 °C 34303.6 hPa SW 23.3 km/h 41.4 km/h 91 % 12.7 mm
06:12 -9.8 °C -10.6 °C 34303.6 hPa SW 20.8 km/h 44.1 km/h 91 % 12.7 mm
06:17 -9.8 °C -10.6 °C 34303.6 hPa WSW 23.3 km/h 49.2 km/h 91 % 12.7 mm
06:22 -9.8 °C -10.6 °C 34303.6 hPa SW 38.8 km/h 49.2 km/h 92 % 12.7 mm
06:32 -9.8 °C -10.6 °C 34303.6 hPa SW 31.1 km/h 57 km/h 92 % 12.7 mm
06:37 -9.8 °C -10.4 °C 34303.6 hPa SSW 41.4 km/h 57 km/h 93 % 12.7 mm
06:42 -9.8 °C -10.4 °C 34303.6 hPa SW 38.8 km/h 57 km/h 93 % 7.62 mm
06:47 -9.8 °C -10.4 °C 34303.6 hPa SW 18.2 km/h 57 km/h 93 % 7.62 mm
06:52 -9.8 °C -10.4 °C 34303.6 hPa WSW 36.2 km/h 54.4 km/h 93 % 12.7 mm
06:57 -9.8 °C -10.4 °C 34303.6 hPa SW 28.5 km/h 54.4 km/h 94 % 12.7 mm
07:02 -9.8 °C -10.3 °C 34303.6 hPa SSW 28.5 km/h 46.7 km/h 94 % 12.7 mm
07:07 -9.7 °C -10.3 °C 34313.7 hPa SW 38.8 km/h 46.7 km/h 94 % 12.7 mm
07:12 -9.7 °C -10.2 °C 34313.7 hPa SW 33.6 km/h 49.2 km/h 94 % 12.7 mm
07:17 -9.7 °C -10.2 °C 34313.7 hPa WSW 36.2 km/h 54.4 km/h 94 % 12.7 mm
07:22 -9.7 °C -10.2 °C 34313.7 hPa SW 31.1 km/h 54.4 km/h 94 % 12.7 mm
07:32 -9.6 °C -10.1 °C 34313.7 hPa SSW 28.5 km/h 54.4 km/h 95 % 12.7 mm
07:37 -9.6 °C -10.1 °C 34313.7 hPa West 28.5 km/h 49.2 km/h 95 % 12.7 mm
07:42 -9.6 °C -10.1 °C 34313.7 hPa SW 44.1 km/h 49.2 km/h 94 % 12.7 mm
07:47 -9.6 °C -10.1 °C 34313.7 hPa SW 25.9 km/h 57 km/h 94 % 12.7 mm
07:52 -9.6 °C -10.1 °C 34313.7 hPa SW 18.2 km/h 57 km/h 94 % 12.7 mm
07:57 -9.6 °C -10 °C 34313.7 hPa SW 31.1 km/h 57 km/h 95 % 7.62 mm
08:02 -9.6 °C -10 °C 34313.7 hPa SW 28.5 km/h 57 km/h 95 % 7.62 mm
08:12 -9.5 °C -9.9 °C 34327.3 hPa SW 20.8 km/h 54.4 km/h 95 % 7.62 mm
08:17 -9.5 °C -9.9 °C 34327.3 hPa SW 33.6 km/h 49.2 km/h 95 % 12.7 mm
08:22 -9.5 °C -9.9 °C 34327.3 hPa WSW 23.3 km/h 49.2 km/h 95 % 12.7 mm
08:32 -9.5 °C -9.9 °C 34327.3 hPa SW 41.4 km/h 46.7 km/h 95 % 7.62 mm
08:42 -9.4 °C -9.7 °C 34327.3 hPa SW 41.4 km/h 46.7 km/h 96 % 12.7 mm
08:47 -9.4 °C -9.7 °C 34327.3 hPa SW 33.6 km/h 49.2 km/h 96 % 12.7 mm
08:52 -9.3 °C -9.7 °C 34327.3 hPa SSW 15.6 km/h 49.2 km/h 96 % 12.7 mm
08:57 -9.3 °C -9.7 °C 34327.3 hPa SW 31.1 km/h 49.2 km/h 96 % 12.7 mm
09:02 -9.3 °C -9.6 °C 34327.3 hPa SW 23.3 km/h 46.7 km/h 96 % 12.7 mm
09:12 -9.2 °C -9.6 °C 34337.4 hPa SW 15.6 km/h 44.1 km/h 96 % 7.62 mm
09:17 -9.2 °C -9.6 °C 34337.4 hPa SSW 23.3 km/h 41.4 km/h 96 % 7.62 mm
09:22 -9.2 °C -9.6 °C 34337.4 hPa SW 28.5 km/h 41.4 km/h 96 % 7.62 mm
09:32 -9.1 °C -9.4 °C 34347.6 hPa SSW 25.9 km/h 41.4 km/h 96 % 7.62 mm
09:42 -9.1 °C -9.4 °C 34347.6 hPa SW 23.3 km/h 49.2 km/h 96 % 7.62 mm
09:52 -9.1 °C -9.4 °C 34347.6 hPa WSW 18.2 km/h 41.4 km/h 96 % 7.62 mm
09:57 -9 °C -9.3 °C 34347.6 hPa West 15.6 km/h 41.4 km/h 96 % 7.62 mm
10:02 -9 °C -9.3 °C 34347.6 hPa South 23.3 km/h 38.8 km/h 96 % 7.62 mm
10:12 -8.9 °C -9.2 °C 34347.6 hPa WSW 23.3 km/h 31.1 km/h 96 % 7.62 mm
10:17 -8.8 °C -9.1 °C 34347.6 hPa WSW 15.6 km/h 44.1 km/h 96 % 7.62 mm
10:22 -8.8 °C -9.1 °C 34347.6 hPa WSW 36.2 km/h 44.1 km/h 96 % 7.62 mm
10:27 -8.7 °C -9.1 °C 34347.6 hPa SW 36.2 km/h 44.1 km/h 96 % 0 mm
10:32 -8.7 °C -9 °C 34347.6 hPa SW 18.2 km/h 49.2 km/h 96 % 0 mm
10:42 -8.5 °C -8.8 °C 34347.6 hPa SW 31.1 km/h 44.1 km/h 96 % 0 mm
10:47 -8.5 °C -8.8 °C 34361.1 hPa SW 15.6 km/h 44.1 km/h 96 % 0 mm
10:52 -8.4 °C -8.8 °C 34361.1 hPa SSW 20.8 km/h 44.1 km/h 96 % 7.62 mm
10:57 -8.4 °C -8.8 °C 34361.1 hPa WSW 25.9 km/h 49.2 km/h 96 % 7.62 mm
11:02 -8.4 °C -8.8 °C 34361.1 hPa SW 15.6 km/h 49.2 km/h 96 % 7.62 mm
11:12 -8.4 °C -8.8 °C 34361.1 hPa SSW 20.8 km/h 49.2 km/h 96 % 12.7 mm
11:17 -8.4 °C -8.8 °C 34361.1 hPa SSW 15.6 km/h 46.7 km/h 96 % 12.7 mm
11:22 -8.4 °C -8.7 °C 34361.1 hPa SSW 20.8 km/h 46.7 km/h 96 % 20.32 mm
11:32 -8.3 °C -8.6 °C 34361.1 hPa SW 20.8 km/h 49.2 km/h 96 % 20.32 mm
11:42 -8.3 °C -8.6 °C 34347.6 hPa WSW 36.2 km/h 49.2 km/h 96 % 25.4 mm
11:47 -8.3 °C -8.7 °C 34347.6 hPa WSW 28.5 km/h 49.2 km/h 95 % 25.4 mm
11:52 -8.2 °C -8.7 °C 34347.6 hPa WSW 36.2 km/h 49.2 km/h 95 % 25.4 mm
12:02 -8.2 °C -8.7 °C 34347.6 hPa SW 23.3 km/h 49.2 km/h 95 % 33.02 mm
12:12 -8.2 °C -8.6 °C 34347.6 hPa SW 33.6 km/h 44.1 km/h 96 % 25.4 mm
12:17 -8.2 °C -8.7 °C 34347.6 hPa SW 23.3 km/h 54.4 km/h 95 % 25.4 mm
12:22 -8.2 °C -8.6 °C 34347.6 hPa SW 33.6 km/h 54.4 km/h 95 % 25.4 mm
12:32 -8.1 °C -8.5 °C 34347.6 hPa SW 25.9 km/h 54.4 km/h 95 % 20.32 mm
12:42 -7.9 °C -8.5 °C 34347.6 hPa WSW 18.2 km/h 59.5 km/h 94 % 12.7 mm
12:52 -7.8 °C -8.4 °C 34347.6 hPa SW 20.8 km/h 59.5 km/h 93 % 12.7 mm
12:57 -7.8 °C -8.4 °C 34347.6 hPa SW 36.2 km/h 54.4 km/h 93 % 12.7 mm
13:02 -7.7 °C -8.4 °C 34347.6 hPa WSW 38.8 km/h 54.4 km/h 93 % 12.7 mm
13:12 -7.6 °C -8.3 °C 34347.6 hPa SW 25.9 km/h 51.8 km/h 92 % 7.62 mm
13:17 -7.6 °C -8.3 °C 34347.6 hPa SSW 25.9 km/h 51.8 km/h 92 % 0 mm
13:22 -7.4 °C -8.3 °C 34347.6 hPa SSW 33.6 km/h 54.4 km/h 91 % 0 mm
13:27 -7.3 °C -8.3 °C 34347.6 hPa SW 28.5 km/h 54.4 km/h 90 % 0 mm
13:32 -7.2 °C -8.3 °C 34337.4 hPa SW 44.1 km/h 54.4 km/h 89 % 0 mm
13:37 -7.2 °C -8.2 °C 34347.6 hPa WSW 20.8 km/h 54.4 km/h 89 % 0 mm
13:42 -7.1 °C -8.2 °C 34337.4 hPa WSW 15.6 km/h 59.5 km/h 89 % 0 mm
13:47 -7.1 °C -8.2 °C 34347.6 hPa South 20.8 km/h 59.5 km/h 88 % 0 mm
13:52 -7.1 °C -8.3 °C 34347.6 hPa WSW 36.2 km/h 57 km/h 87 % 0 mm
14:02 -7 °C -8.2 °C 34337.4 hPa WSW 12.9 km/h 49.2 km/h 87 % 0 mm
14:12 -6.7 °C -8.2 °C 34327.3 hPa West 25.9 km/h 57 km/h 85 % 0 mm
14:17 -6.6 °C -8.1 °C 34327.3 hPa SSW 25.9 km/h 57 km/h 84 % 0 mm
14:27 -6.5 °C -8.2 °C 34327.3 hPa SW 31.1 km/h 57 km/h 83 % 0 mm
14:32 -6.5 °C -8.3 °C 34327.3 hPa SW 46.7 km/h 57 km/h 82 % 0 mm
14:37 -6.4 °C -8.2 °C 34327.3 hPa WSW 31.1 km/h 57 km/h 82 % 0 mm
14:42 -6.4 °C -8.4 °C 34327.3 hPa West 33.6 km/h 57 km/h 80 % 0 mm
14:47 -6.3 °C -8.4 °C 34327.3 hPa WSW 59.5 km/h 62.1 km/h 79 % 0 mm
14:57 -6.2 °C -8.3 °C 34327.3 hPa WSW 25.9 km/h 62.1 km/h 79 % 0 mm
15:02 -6.2 °C -8.5 °C 34313.7 hPa WSW 44.1 km/h 59.5 km/h 77 % 0 mm
15:12 -6.1 °C -8.4 °C 34313.7 hPa SW 25.9 km/h 62.1 km/h 77 % 0 mm
15:17 -6.1 °C -8.5 °C 34313.7 hPa WSW 49.2 km/h 62.1 km/h 76 % 0 mm
15:22 -6.1 °C -8.5 °C 34313.7 hPa SW 36.2 km/h 59.5 km/h 76 % 0 mm
15:32 -5.9 °C -8.4 °C 34303.6 hPa WSW 31.1 km/h 67.3 km/h 76 % 0 mm
15:37 -5.9 °C -8.3 °C 34303.6 hPa WNW 28.5 km/h 67.3 km/h 76 % 0 mm
15:42 -5.6 °C -8.3 °C 34293.4 hPa WSW 33.6 km/h 67.3 km/h 74 % 0 mm
15:47 -5.4 °C -8.4 °C 34293.4 hPa SW 41.4 km/h 82.9 km/h 72 % 0 mm
15:52 -5.4 °C -8.4 °C 34293.4 hPa WSW 41.4 km/h 82.9 km/h 71 % 0 mm
15:57 -5.4 °C -8.6 °C 34293.4 hPa SW 25.9 km/h 82.9 km/h 70 % 0 mm
16:02 -5.4 °C -8.6 °C 34293.4 hPa WSW 59.5 km/h 82.9 km/h 70 % 0 mm
16:12 -5.4 °C -8.4 °C 34293.4 hPa SW 36.2 km/h 80.3 km/h 72 % 0 mm
16:17 -5.4 °C -8.4 °C 34293.4 hPa SSE 28.5 km/h 80.3 km/h 72 % 0 mm
16:22 -5.5 °C -8.4 °C 34293.4 hPa WNW 23.3 km/h 67.3 km/h 72 % 0 mm
16:27 -5.6 °C -8.4 °C 34293.4 hPa SW 44.1 km/h 67.3 km/h 73 % 0 mm
16:32 -5.6 °C -8.4 °C 34293.4 hPa WSW 41.4 km/h 67.3 km/h 73 % 0 mm
16:42 -5.4 °C -8.4 °C 34293.4 hPa WSW 41.4 km/h 69.8 km/h 72 % 0 mm
16:47 -5.4 °C -8.4 °C 34293.4 hPa West 41.4 km/h 69.8 km/h 71 % 0 mm
16:52 -5.3 °C -8.5 °C 34293.4 hPa SW 46.7 km/h 69.8 km/h 70 % 0 mm
16:57 -5.3 °C -8.5 °C 34293.4 hPa WSW 28.5 km/h 69.8 km/h 70 % 0 mm
17:02 -5.3 °C -8.4 °C 34293.4 hPa WSW 54.4 km/h 69.8 km/h 71 % 0 mm
17:12 -5.3 °C -8.8 °C 34293.4 hPa WSW 69.8 km/h 69.8 km/h 67 % 0 mm
17:17 -5.2 °C -8.8 °C 34293.4 hPa SW 41.4 km/h 72.6 km/h 67 % 0 mm
17:22 -5.2 °C -8.9 °C 34293.4 hPa SSW 23.3 km/h 72.6 km/h 66 % 0 mm
17:27 -5.2 °C -8.8 °C 34293.4 hPa West 33.6 km/h 72.6 km/h 67 % 0 mm
17:32 -5.3 °C -8.7 °C 34293.4 hPa WSW 18.2 km/h 69.8 km/h 68 % 0 mm
17:42 -5.2 °C -8.9 °C 34279.9 hPa SW 33.6 km/h 69.8 km/h 66 % 0 mm
17:47 -5.2 °C -8.9 °C 34279.9 hPa SW 57 km/h 69.8 km/h 66 % 0 mm
17:52 -5.3 °C -9.1 °C 34269.7 hPa West 51.8 km/h 75.2 km/h 66 % 0 mm
17:57 -5.4 °C -8.9 °C 34279.9 hPa WSW 36.2 km/h 75.2 km/h 67 % 0 mm
18:02 -5.4 °C -8.8 °C 34279.9 hPa WSW 28.5 km/h 75.2 km/h 68 % 0 mm
18:12 -5.3 °C -8.8 °C 34269.7 hPa WSW 28.5 km/h 77.7 km/h 68 % 0 mm
18:17 -5.3 °C -9.1 °C 34269.7 hPa WSW 31.1 km/h 77.7 km/h 66 % 0 mm
18:22 -5.4 °C -8.9 °C 34269.7 hPa West 28.5 km/h 77.7 km/h 67 % 0 mm
18:27 -5.4 °C -9 °C 34256.2 hPa WSW 31.1 km/h 77.7 km/h 67 % 0 mm
18:32 -5.5 °C -9.1 °C 34256.2 hPa WSW 51.8 km/h 72.6 km/h 67 % 0 mm
18:37 -5.6 °C -8.9 °C 34256.2 hPa WSW 41.4 km/h 85.5 km/h 69 % 0 mm
18:42 -5.7 °C -8.9 °C 34256.2 hPa WSW 51.8 km/h 85.5 km/h 69 % 0 mm
18:47 -5.7 °C -8.8 °C 34256.2 hPa West 38.8 km/h 75.2 km/h 70 % 0 mm
18:52 -5.7 °C -8.9 °C 34256.2 hPa WSW 51.8 km/h 75.2 km/h 70 % 0 mm
18:57 -5.7 °C -8.8 °C 34256.2 hPa SW 36.2 km/h 80.3 km/h 71 % 0 mm
19:02 -5.8 °C -8.9 °C 34256.2 hPa SW 44.1 km/h 80.3 km/h 70 % 0 mm
19:12 -5.9 °C -9 °C 34269.7 hPa SW 44.1 km/h 64.7 km/h 71 % 0 mm
19:17 -5.9 °C -9 °C 34269.7 hPa WSW 62.1 km/h 72.6 km/h 71 % 0 mm
19:22 -6 °C -9.2 °C 34269.7 hPa SW 28.5 km/h 75.2 km/h 70 % 0 mm
19:27 -6 °C -9.2 °C 34269.7 hPa SW 67.3 km/h 90.6 km/h 70 % 0 mm
19:32 -6.1 °C -9.1 °C 34269.7 hPa South 25.9 km/h 90.6 km/h 71 % 0 mm
19:42 -6.1 °C -9.2 °C 34269.7 hPa SW 36.2 km/h 72.6 km/h 71 % 0 mm
19:47 -6.2 °C -9.2 °C 34269.7 hPa West 59.5 km/h 67.3 km/h 71 % 0 mm
19:52 -6.2 °C -9.1 °C 34269.7 hPa SW 20.8 km/h 77.7 km/h 72 % 0 mm
20:02 -6.2 °C -9 °C 34256.2 hPa SW 36.2 km/h 77.7 km/h 73 % 0 mm
20:12 -6.3 °C -9.1 °C 34256.2 hPa SW 62.1 km/h 77.7 km/h 73 % 0 mm
20:17 -6.3 °C -9.1 °C 34269.7 hPa SW 36.2 km/h 77.7 km/h 73 % 0 mm
20:22 -6.3 °C -9 °C 34269.7 hPa WSW 46.7 km/h 67.3 km/h 74 % 0 mm
20:27 -6.3 °C -9 °C 34269.7 hPa WSW 36.2 km/h 67.3 km/h 74 % 0 mm
20:32 -6.4 °C -9.1 °C 34256.2 hPa WSW 62.1 km/h 64.7 km/h 74 % 0 mm
20:42 -6.4 °C -9 °C 34256.2 hPa SSW 31.1 km/h 67.3 km/h 75 % 0 mm
20:47 -6.4 °C -8.9 °C 34269.7 hPa West 33.6 km/h 77.7 km/h 76 % 0 mm
20:52 -6.5 °C -8.9 °C 34256.2 hPa WSW 41.4 km/h 77.7 km/h 76 % 0 mm
21:02 -6.6 °C -8.9 °C 34269.7 hPa SW 20.8 km/h 69.8 km/h 77 % 0 mm
21:12 -6.6 °C -8.9 °C 34256.2 hPa SW 41.4 km/h 69.8 km/h 77 % 0 mm
21:17 -6.7 °C -8.9 °C 34269.7 hPa WSW 33.6 km/h 69.8 km/h 78 % 0 mm
21:22 -6.8 °C -8.9 °C 34269.7 hPa SW 25.9 km/h 69.8 km/h 78 % 0 mm
21:32 -6.8 °C -8.9 °C 34269.7 hPa SW 31.1 km/h 82.9 km/h 79 % 0 mm
21:37 -6.8 °C -8.9 °C 34269.7 hPa WSW 36.2 km/h 82.9 km/h 79 % 0 mm
21:42 -6.9 °C -8.8 °C 34256.2 hPa SW 44.1 km/h 82.9 km/h 80 % 0 mm
21:47 -6.9 °C -8.8 °C 34269.7 hPa WSW 31.1 km/h 80.3 km/h 80 % 0 mm
21:57 -7 °C -8.8 °C 34269.7 hPa SW 41.4 km/h 67.3 km/h 81 % 0 mm
22:02 -7.1 °C -8.9 °C 34269.7 hPa West 25.9 km/h 72.6 km/h 81 % 0 mm
22:07 -7.2 °C -8.9 °C 34269.7 hPa SW 28.5 km/h 72.6 km/h 82 % 0 mm
22:12 -7.3 °C -8.9 °C 34269.7 hPa WSW 31.1 km/h 72.6 km/h 83 % 0 mm
22:17 -7.3 °C -8.9 °C 34269.7 hPa SSE 41.4 km/h 62.1 km/h 84 % 0 mm
22:22 -7.3 °C -8.9 °C 34269.7 hPa WSW 46.7 km/h 67.3 km/h 84 % 0 mm
22:32 -7.4 °C -8.8 °C 34269.7 hPa South 18.2 km/h 69.8 km/h 85 % 0 mm
22:42 -7.5 °C -8.9 °C 34269.7 hPa WSW 33.6 km/h 72.6 km/h 85 % 0 mm
22:47 -7.5 °C -8.9 °C 34256.2 hPa SW 33.6 km/h 72.6 km/h 85 % 0 mm
22:52 -7.4 °C -8.9 °C 34256.2 hPa SW 28.5 km/h 67.3 km/h 85 % 0 mm
22:57 -7.6 °C -8.9 °C 34269.7 hPa SSW 20.8 km/h 67.3 km/h 86 % 0 mm
23:02 -7.6 °C -9.1 °C 34269.7 hPa WSW 59.5 km/h 67.3 km/h 85 % 0 mm
23:12 -7.5 °C -9.1 °C 34269.7 hPa WSW 59.5 km/h 67.3 km/h 83 % 0 mm
23:17 -7.5 °C -9.2 °C 34256.2 hPa SSW 33.6 km/h 80.3 km/h 82 % 0 mm
23:22 -7.6 °C -9.4 °C 34269.7 hPa WSW 54.4 km/h 80.3 km/h 81 % 0 mm
23:27 -7.6 °C -9.5 °C 34256.2 hPa WSW 25.9 km/h 80.3 km/h 80 % 0 mm
23:32 -7.6 °C -9.6 °C 34256.2 hPa SW 46.7 km/h 77.7 km/h 80 % 0 mm
23:37 -7.6 °C -9.4 °C 34256.2 hPa SW 28.5 km/h 90.6 km/h 81 % 0 mm
23:42 -7.7 °C -9.4 °C 34256.2 hPa WSW 33.6 km/h 90.6 km/h 82 % 0 mm
23:47 -7.7 °C -9.3 °C 34256.2 hPa SW 41.4 km/h 90.6 km/h 83 % 0 mm
23:57 -7.8 °C -9.3 °C 34246 hPa SSW 38.8 km/h 82.9 km/h 84 % 0 mm
Meteo18
Compliments of Weather Underground - 4 mb

Script developed by  Jim McMurry - jmcmurry@mwt.net Adapted for the template by  Wim van der Kuil - Leuven-Template.eu

You find our weather info also at:

European Weather Network

Weather Underground

Equipment we use:

Weather-station
Davis Vue

Weather-program
Meteobridge

Weather-server
Raspberry PI 2 B+

Provider
1 and 1

Davis Vue

Meteobridge

Raspberry PI 2 B+

1 and 1